GFSFLT2_850_spd_057.txt.gz
Wind_Speed
12 14 8 6 5 9 5 12 4 6 8 10 12 11 32 31 29 27 28 21 14 37 50 50 47 50 52 50 46 43 44 42
13 5 8 8 4 5 4 6 6 6 9 5 6 18 24 22 34 31 37 30 21 20 27 45 49 46 49 49 48 43 43 45
9 4 3 1 2 1 0 1 4 6 8 8 3 18 23 30 42 41 42 42 33 13 28 31 46 45 48 51 49 47 44 43
10 18 15 11 3 0 3 7 3 3 8 11 12 18 6 17 36 46 47 46 42 27 38 38 40 49 51 51 52 50 47 45
10 6 5 6 6 6 4 4 10 5 8 4 15 17 23 21 26 27 34 45 48 29 43 54 43 46 49 52 52 50 49 47
6 7 9 12 19 17 5 2 5 6 8 9 11 12 19 24 35 29 18 30 37 38 48 56 50 42 47 49 49 48 49 50
12 13 14 16 18 19 13 9 4 11 14 4 10 11 20 23 24 23 23 15 12 17 31 32 53 46 39 49 52 49 48 51
13 12 17 17 17 20 19 16 15 13 16 6 20 25 23 27 27 21 22 16 18 27 32 47 47 52 38 40 51 54 51 52
7 8 13 12 12 16 18 18 11 12 10 10 9 14 18 25 28 32 33 32 32 34 20 43 41 24 40 47 47 53 54 52
4 5 3 9 8 14 18 17 18 19 13 11 10 22 27 23 26 30 34 40 26 23 5 27 33 24 28 30 38 52 57 56
3 4 9 14 12 10 7 10 10 8 12 27 23 21 17 18 21 28 30 38 36 23 14 19 4 18 26 27 20 34 44 56
2 4 6 6 6 19 5 9 12 17 14 21 25 7 5 30 36 37 39 40 39 37 37 29 18 7 11 43 55 41 40 54
7 6 6 12 25 15 3 5 29 26 17 23 9 11 26 29 42 42 44 42 35 33 35 40 28 17 10 12 34 39 48 44
5 3 5 30 17 6 14 33 24 32 29 29 31 38 34 27 40 45 45 40 35 31 36 27 22 22 15 23 26 24 24 42
3 5 21 16 15 24 21 27 33 30 33 31 34 46 47 42 43 41 43 35 35 32 41 26 26 25 27 27 19 12 23 23
5 3 15 24 20 20 25 29 36 40 36 30 30 38 48 45 35 31 29 25 26 36 34 30 26 25 26 27 28 25 23 30
5 13 22 9 28 25 27 25 29 37 34 37 31 33 34 34 32 25 25 19 19 22 25 23 25 23 25 28 28 30 31 28
3 15 14 19 26 25 25 29 28 37 19 22 18 18 25 35 23 21 16 17 19 17 15 19 20 21 22 23 26 30 33 31
6 15 17 17 20 23 22 23 20 22 20 18 16 17 14 22 19 17 11 8 8 9 14 14 16 14 22 21 24 25 31 35

GFSFLT2_850_spd_060.txt.gz
Wind_Speed
3 4 3 3 2 7 6 1 4 4 7 5 12 5 19 30 33 40 44 42 44 47 48 50 51 50 50 47 44 39 36 39
6 10 9 1 3 3 4 4 4 5 5 4 12 15 6 14 31 35 36 44 39 50 51 52 54 51 50 48 46 42 39 37
5 5 3 7 6 5 5 5 5 3 4 2 9 14 15 18 35 31 36 47 39 47 48 48 47 49 50 50 49 46 44 40
6 5 4 5 8 7 4 1 3 4 4 2 11 17 26 24 13 18 22 24 33 39 48 45 45 43 45 50 50 47 44 44
13 6 8 6 8 7 4 3 3 5 4 8 17 19 25 30 10 24 25 32 34 35 21 18 30 49 47 46 49 49 47 45
4 4 4 7 14 9 5 3 3 2 4 9 11 12 20 32 35 7 11 13 20 24 17 11 14 25 34 44 47 49 49 48
2 4 5 8 14 11 5 4 3 6 6 3 3 7 16 26 25 23 16 3 1 14 24 28 25 23 27 31 41 48 48 50
7 8 9 8 10 12 9 5 5 7 5 5 8 20 18 16 24 25 22 11 19 26 20 32 31 35 32 30 28 42 46 49
3 7 8 7 4 5 8 3 0 4 6 5 8 13 14 18 21 18 20 23 28 29 26 34 17 8 29 34 31 36 43 47
3 4 3 6 7 9 11 3 6 2 7 11 11 11 17 17 17 19 22 25 28 31 27 28 22 12 12 9 28 36 36 39
3 4 7 13 7 7 7 6 12 10 14 13 19 15 9 14 21 23 25 28 29 29 28 28 27 27 19 16 21 25 43 42
2 3 5 1 14 23 17 4 17 17 19 20 18 4 3 24 26 23 25 29 33 30 27 17 20 24 20 15 19 30 36 43
3 4 4 8 21 21 4 4 24 20 23 28 8 11 27 32 38 28 26 28 33 33 25 22 17 17 18 20 22 21 27 36
3 3 5 17 7 2 13 22 20 27 24 31 33 31 30 28 30 39 39 33 32 34 24 22 22 20 21 21 23 22 18 23
6 5 10 12 13 20 15 23 24 27 28 27 33 38 43 47 42 39 42 38 37 36 30 23 23 22 23 25 20 18 19 24
1 5 6 20 11 17 22 26 26 26 30 30 37 35 38 39 43 40 38 35 37 34 33 31 26 24 22 23 23 17 33 26
6 13 12 9 15 19 22 26 27 29 25 26 30 24 28 33 38 38 33 28 31 32 31 35 30 30 24 24 24 24 29 33
5 9 7 16 16 19 20 27 22 24 23 21 21 19 19 26 30 36 34 24 28 27 27 31 32 31 30 28 23 25 26 30
8 8 13 18 15 11 17 23 27 20 19 21 21 18 19 24 21 25 19 22 29 28 30 31 30 30 30 29 26 27 28 29

GFSFLT2_850_spd_063.txt.gz
Wind_Speed
1 2 2 3 3 5 8 2 3 2 5 3 13 12 14 23 24 30 34 39 44 42 44 48 47 54 53 48 45 40 34 28
4 6 8 5 3 2 3 6 4 2 4 3 13 15 15 7 25 32 31 34 41 42 45 47 49 51 53 50 47 42 37 33
2 6 5 7 6 4 3 3 6 4 1 5 6 8 10 11 20 26 26 31 33 44 36 45 47 50 53 52 50 47 42 36
4 6 11 16 4 4 4 5 3 3 2 7 7 10 17 19 7 22 23 28 27 32 29 28 38 45 50 52 51 50 45 41
4 6 8 7 7 5 2 2 2 2 3 7 11 14 23 24 30 18 11 12 11 19 20 17 20 33 41 46 49 50 49 46
4 3 3 3 5 5 5 4 5 2 6 8 11 9 19 24 30 28 26 19 14 16 11 4 8 10 22 34 43 47 49 48
3 2 2 1 4 5 4 2 1 3 4 7 8 8 16 22 25 32 29 31 23 8 19 17 19 12 18 24 33 37 43 46
5 5 4 3 4 5 7 5 6 6 1 6 12 17 22 21 23 26 26 28 28 25 12 23 25 17 14 27 31 30 34 39
4 6 7 5 6 5 2 1 3 4 4 12 10 18 16 19 21 23 25 26 26 25 22 19 23 20 13 8 24 36 27 30
1 5 2 4 7 8 1 7 8 6 9 12 13 20 7 11 20 25 26 27 27 26 22 15 14 19 16 6 4 24 28 27
3 2 5 2 5 5 4 2 7 6 10 13 26 24 14 14 21 27 27 27 28 26 24 23 16 20 20 11 3 4 16 24
2 3 4 0 5 13 3 5 7 14 9 9 8 5 7 21 31 34 31 29 29 29 28 25 23 18 19 19 10 9 10 18
3 3 3 3 14 11 5 2 14 12 19 17 10 11 32 38 38 35 36 35 32 30 31 27 26 25 20 18 20 15 10 11
2 1 6 7 5 1 8 17 16 23 23 22 22 19 24 35 39 38 37 36 34 34 32 32 28 29 27 23 19 21 16 8
7 5 3 1 4 7 8 14 20 24 24 24 29 24 23 34 33 32 33 35 33 35 35 36 32 28 33 29 26 23 19 17
3 4 6 9 11 7 11 17 22 27 26 24 30 27 27 27 24 24 25 32 32 30 35 36 37 31 31 36 31 27 25 24
4 15 20 17 11 11 15 17 22 27 24 24 23 28 26 24 21 22 26 31 33 31 33 36 34 35 31 36 36 34 28 27
6 11 8 10 8 11 17 15 20 25 29 23 23 26 27 24 24 25 26 26 33 34 32 35 33 32 32 34 37 38 34 31
6 3 11 15 18 18 17 18 19 22 26 24 25 24 24 25 28 33 30 26 19 28 30 30 30 33 32 33 35 41 36 35

GFSFLT2_850_spd_069.txt.gz
Wind_Speed
10 3 2 6 8 1 4 2 8 4 3 5 15 18 25 24 16 6 18 27 29 29 32 34 39 41 39 34 31 27 34 32
5 2 11 1 4 7 3 7 9 3 4 5 16 18 19 22 25 12 11 19 22 27 27 30 34 36 37 36 33 30 31 34
1 7 6 1 3 2 1 2 6 7 5 6 10 12 14 21 24 24 12 6 14 17 20 23 27 28 33 35 36 35 33 35
5 2 4 8 4 1 7 6 2 1 5 7 10 14 18 21 24 24 24 20 14 4 10 15 23 26 31 32 34 36 35 32
3 4 2 4 6 3 2 1 2 6 6 9 13 17 20 21 23 26 27 28 23 15 13 8 4 12 20 26 28 31 35 36
1 4 2 3 5 7 3 2 7 3 11 8 11 12 16 18 20 26 29 28 28 27 21 12 4 4 9 18 18 20 25 29
7 5 2 3 1 4 5 4 2 10 8 6 8 9 11 13 16 21 27 28 26 25 24 22 15 9 2 10 20 22 22 25
3 4 3 3 4 2 1 1 3 5 6 3 5 5 8 12 14 17 19 21 23 21 22 22 21 15 10 7 7 18 26 27
4 3 2 5 1 2 4 5 2 5 5 6 5 11 11 12 9 14 17 20 21 21 20 21 21 18 14 10 9 7 18 27
4 4 5 5 3 2 4 7 5 4 6 7 10 15 17 7 5 12 19 22 23 23 23 19 19 17 15 13 10 10 13 16
4 5 2 3 1 1 1 4 5 4 8 10 14 14 1 4 10 19 22 23 23 23 25 25 22 20 16 15 14 8 8 9
3 3 6 5 5 1 3 4 3 4 7 12 14 5 3 10 24 29 26 26 27 27 27 27 25 24 21 17 14 14 12 8
3 3 1 6 5 5 3 4 1 2 5 7 7 10 22 26 26 24 25 27 28 28 26 25 27 28 26 22 19 16 16 14
2 2 5 12 6 5 5 4 3 1 4 7 11 17 22 25 25 24 26 25 23 25 30 26 26 27 29 29 23 21 19 19
6 3 2 11 3 3 3 3 2 2 5 9 12 17 22 24 26 26 26 25 24 24 26 28 25 25 29 30 30 25 24 22
1 7 13 12 10 6 6 4 5 4 6 9 12 18 23 24 25 27 27 27 25 26 27 29 29 27 29 30 30 31 28 28
5 8 4 12 15 10 10 9 8 8 10 12 14 17 19 23 25 27 32 30 29 26 28 30 30 33 32 35 33 32 33 31
5 9 4 5 10 12 11 11 9 9 9 11 12 15 17 20 23 29 31 30 31 31 30 30 33 34 36 35 33 32 34 34
4 12 8 8 11 11 10 8 8 9 9 10 11 14 18 23 25 25 29 32 33 33 34 35 36 32 30 29 29 28 28 30

GFSFLT2_850_spd_072.txt.gz
Wind_Speed
1 2 8 19 18 13 7 4 12 12 12 13 7 11 16 19 12 5 20 23 24 25 26 28 29 28 26 23 24 22 21 26
2 5 2 6 13 10 9 12 14 12 17 9 7 11 14 19 23 14 6 14 19 22 22 24 26 27 25 24 24 25 23 20
8 3 5 9 10 10 12 8 13 9 7 6 7 10 12 16 20 22 24 15 3 4 18 18 20 23 24 25 24 23 24 23
7 5 2 3 4 9 11 13 8 7 7 7 9 14 13 16 18 20 21 23 20 12 10 11 15 18 20 21 23 23 22 23
10 8 5 3 2 4 8 8 17 11 8 10 11 14 16 18 19 20 21 23 23 18 15 14 10 6 11 16 18 19 19 21
2 7 7 8 4 1 8 11 8 6 19 13 11 12 14 17 18 19 21 22 23 26 23 17 9 10 11 3 6 14 19 18
6 6 4 3 3 2 1 5 7 17 16 13 11 11 13 13 15 18 21 21 21 22 23 22 18 11 8 7 2 5 11 16
3 1 1 5 3 2 2 3 6 12 14 11 9 9 9 10 11 14 17 20 19 18 20 21 21 17 9 7 3 3 8 14
9 3 3 8 10 5 6 2 1 10 13 5 7 5 6 6 6 11 14 16 17 20 20 19 19 18 17 12 7 3 4 7
3 6 8 7 4 2 4 6 6 10 8 5 2 3 4 6 8 11 14 16 16 16 17 19 16 14 14 14 12 6 4 1
4 10 4 7 6 6 11 9 3 4 4 3 5 5 9 6 9 13 15 15 15 16 17 18 17 19 16 12 13 13 11 6
4 4 5 10 6 4 3 6 7 4 3 4 7 6 12 9 15 16 15 17 18 18 17 16 17 18 18 18 18 14 13 12
7 5 1 7 7 5 7 5 9 4 2 2 4 6 13 15 15 15 16 16 18 19 18 16 17 18 18 18 18 20 18 16
5 4 6 12 6 4 8 8 5 3 1 1 3 5 8 12 14 15 16 17 16 17 17 19 18 18 19 19 19 22 22 23
4 1 2 15 2 6 4 5 4 3 2 1 4 6 10 12 14 15 16 18 18 18 19 18 19 19 22 22 23 24 25 25
2 6 10 14 9 6 7 6 6 5 3 2 5 7 10 11 13 14 15 18 18 20 20 20 18 20 23 24 24 25 27 27
7 10 5 14 15 11 11 9 7 6 4 5 6 7 9 12 14 15 16 17 18 19 21 24 23 22 21 24 25 27 27 27
6 8 13 4 17 17 13 13 10 8 6 6 6 7 9 12 14 17 19 20 19 20 23 25 25 25 24 25 25 27 28 27
8 8 9 7 10 15 15 13 12 10 9 8 8 9 11 13 15 19 20 21 21 22 25 26 26 27 28 25 26 24 28 27

GFSFLT2_850_spd_075.txt.gz
Wind_Speed
8 16 17 18 19 24 14 14 14 13 15 12 13 12 13 12 9 19 27 32 31 28 32 35 31 30 27 24 21 20 19 19
11 8 12 12 14 20 11 17 15 16 19 11 12 10 11 13 17 22 19 15 10 16 27 31 32 30 27 25 22 20 18 18
8 14 15 12 12 16 13 16 13 10 9 12 12 9 11 13 14 19 20 19 11 5 17 15 21 31 30 27 23 20 19 18
17 4 4 14 15 17 12 19 15 7 8 12 13 15 17 13 14 17 20 20 19 15 18 19 12 16 17 28 26 23 21 19
6 6 10 12 10 11 15 18 14 16 10 13 18 16 19 16 15 17 19 21 23 22 16 12 11 10 9 11 13 23 23 21
6 3 16 19 9 11 14 11 12 8 23 16 17 16 17 17 16 17 19 23 22 24 20 15 11 10 11 9 7 8 10 19
3 8 9 12 14 9 16 17 13 20 19 17 15 16 21 18 17 18 19 20 21 21 22 17 14 8 5 2 4 7 12 9
10 5 5 5 6 6 8 5 8 20 19 16 16 18 15 14 15 16 16 15 16 16 17 19 19 17 10 4 8 6 8 11
14 13 4 10 12 10 8 6 11 14 18 14 13 12 9 11 11 11 11 11 12 12 13 13 13 14 13 10 8 2 4 8
12 9 13 4 1 4 6 5 8 13 13 15 13 9 8 11 9 8 8 9 9 9 11 13 12 13 12 11 10 9 5 3
11 9 5 8 7 7 12 10 2 12 10 12 11 12 12 7 6 6 7 7 7 9 10 10 9 12 15 11 13 12 11 9
7 9 14 13 11 4 2 10 12 8 8 7 8 10 13 3 4 5 6 7 8 9 9 8 9 10 11 11 13 11 15 12
8 7 1 10 8 6 9 6 12 9 7 4 2 12 5 3 4 5 6 8 10 9 9 9 10 11 12 12 11 13 14 15
8 10 10 13 6 6 11 14 13 8 7 5 5 3 3 4 5 6 6 7 8 10 11 12 13 13 13 14 15 16 18 19
4 3 6 6 2 8 7 9 7 7 7 6 5 3 2 3 5 6 7 8 9 9 11 12 13 14 16 16 17 19 20 22
2 7 7 11 8 7 6 6 7 7 7 6 4 2 1 2 4 5 7 9 11 12 13 13 13 15 17 19 20 21 23 25
10 10 5 12 13 10 8 8 8 8 6 4 3 2 1 1 3 5 8 11 13 14 14 16 17 18 17 19 20 22 24 25
7 7 12 12 18 16 13 13 11 10 8 6 5 4 3 3 3 6 9 11 14 15 16 17 18 19 19 19 20 23 25 25
16 15 10 8 7 15 16 14 12 11 9 8 7 6 6 5 5 7 9 11 12 13 15 18 19 19 20 22 21 22 24 26